Back to catalog

STARLINK-34673

AliveCommunicationsVLEO
NORAD 65090·PAYLOAD·🇺🇸 United States

Launched Aug 4, 2025 from Cape Canaveral Space Force Station

Loading…

Next Passes (next 24 hours)

TLE

FreshSource: CelesTrak SupGP

Epoch: Sep 14, 2026, 23:07 UTC

1 65090C 25167N   26257.96368056  .00008732  00000+0  28072-3 0  2574
2 65090  53.1581 227.4909 0001384  97.9785  82.4600 15.31705883    11

Track STARLINK-34673 in real time with AllMySat

Download on the App Store